Location: Beetenbrück
(52.8113°N, 9.5946°E)
Time: 22:05:18
(UTC+00:00)

Cosmos 407 Rocket - Pass Details

Date: 14 April 2026
Orbit: 740 x 781 km, 74.0° (Epoch: 12 May)

Event Time Altitude Azimuth Distance (km) Brightness Sun altitude
Rises 23:11:40 0° 330° (NNW) 3,213 7.7 -27.5°
Reaches altitude 10° 23:14:08 10° 324° (NW) 2,279 6.6 -27.5°
Enters shadow 23:18:10 39° 278° (W) 1,113 4.3 -27.5°
